• în Republica Moldova
  • Lista ţărilor
  • Pe 7 zile
  • Temperatura apei
  • Hartă satelitară
  • Meteo pe hartă
  • Widget-uri
  • user-avatar
    Intrare

    Meteo pe oră la Brody

    Astăzi, 19 Noiembrie, Luni

    Timp Temperatura Precipitaţii Vânt Presiune Umiditate
    00:00 +1°C° 0 mm 1 m/s 757 mmHg 96%
    01:00 +1°C° 0 mm 1 m/s 757 mmHg 96%
    02:00 -1°C° 0 mm 2 m/s 758 mmHg 96%
    03:00 -1°C° 0 mm 2 m/s 758 mmHg 96%
    04:00 -2°C° 0 mm 2 m/s 758 mmHg 96%
    05:00 -2°C° 0 mm 2 m/s 758 mmHg 96%
    06:00 -2°C° 0 mm 2 m/s 758 mmHg 96%
    07:00 -3°C° 0 mm 2 m/s 758 mmHg 96%
    08:00 -3°C° 0 mm 2 m/s 759 mmHg 95%
    09:00 -2°C° 0 mm 3 m/s 759 mmHg 92%
    10:00 -1°C° 0 mm 3 m/s 759 mmHg 90%
    11:00 0°C° 0 mm 3 m/s 760 mmHg 88%
    12:00 -1°C° 0 mm 4 m/s 760 mmHg 88%
    13:00 -1°C° 0 mm 4 m/s 760 mmHg 88%
    14:00 -1°C° 0 mm 4 m/s 759 mmHg 87%
    15:00 -1°C° 0 mm 4 m/s 759 mmHg 88%
    16:00 -1°C° 0 mm 4 m/s 759 mmHg 89%
    17:00 -2°C° 0 mm 4 m/s 759 mmHg 90%
    18:00 -2°C° 0 mm 4 m/s 759 mmHg 90%
    19:00 -2°C° 0 mm 4 m/s 760 mmHg 90%
    20:00 -1°C° 0 mm 3 m/s 760 mmHg 91%
    21:00 -1°C° 0 mm 3 m/s 760 mmHg 91%
    22:00 -1°C° 0 mm 3 m/s 760 mmHg 91%
    23:00 -1°C° 0 mm 3 m/s 760 mmHg 92%

    Mâine, 20 Noiembrie, Marţi

    Timp Temperatura Precipitaţii Vânt Presiune Umiditate
    00:00 -1°C° 0 mm 3 m/s 760 mmHg 92%
    01:00 -1°C° 0 mm 3 m/s 760 mmHg 92%
    02:00 -1°C° 0 mm 3 m/s 760 mmHg 92%
    03:00 -1°C° 0 mm 3 m/s 760 mmHg 93%
    04:00 -1°C° 0 mm 3 m/s 760 mmHg 93%
    05:00 -1°C° 0 mm 3 m/s 760 mmHg 93%
    06:00 -2°C° 0 mm 3 m/s 760 mmHg 93%
    07:00 -2°C° 0 mm 3 m/s 760 mmHg 93%
    08:00 -2°C° 0 mm 3 m/s 760 mmHg 93%
    09:00 -2°C° 0 mm 3 m/s 760 mmHg 91%
    10:00 -1°C° 0 mm 3 m/s 760 mmHg 88%
    11:00 +1°C° 0 mm 2 m/s 760 mmHg 86%
    12:00 +1°C° 0 mm 2 m/s 760 mmHg 85%
    13:00 +1°C° 0 mm 2 m/s 760 mmHg 84%
    14:00 +1°C° 0 mm 2 m/s 760 mmHg 83%
    15:00 -1°C° 0 mm 2 m/s 760 mmHg 87%
    16:00 -2°C° 0 mm 2 m/s 760 mmHg 90%
    17:00 -3°C° 0 mm 2 m/s 760 mmHg 93%
    18:00 -3°C° 0 mm 2 m/s 760 mmHg 94%
    19:00 -4°C° 0 mm 2 m/s 760 mmHg 94%
    20:00 -4°C° 0 mm 2 m/s 760 mmHg 95%
    21:00 -4°C° 0 mm 2 m/s 760 mmHg 95%
    22:00 -2°C° 0 mm 1 m/s 760 mmHg 95%
    23:00 -3°C° 0 mm 1 m/s 760 mmHg 95%

    Poimâine, 21 Noiembrie, Miercuri

    Timp Temperatura Precipitaţii Vânt Presiune Umiditate
    00:00 -3°C° 0 mm 1 m/s 760 mmHg 95%
    01:00 -3°C° 0 mm 1 m/s 760 mmHg 96%
    02:00 -3°C° 0 mm 1 m/s 760 mmHg 96%
    03:00 -3°C° 0 mm 1 m/s 760 mmHg 96%
    04:00 -3°C° 0 mm 1 m/s 760 mmHg 95%
    05:00 -3°C° 0 mm 1 m/s 760 mmHg 95%
    06:00 -3°C° 0 mm 1 m/s 760 mmHg 95%
    07:00 -3°C° 0 mm 1 m/s 760 mmHg 94%
    08:00 -3°C° 0 mm 1 m/s 760 mmHg 93%
    09:00 -2°C° 0 mm 1 m/s 760 mmHg 89%
    10:00 -1°C° 0 mm 1 m/s 760 mmHg 85%
    11:00 0°C° 0 mm 1 m/s 760 mmHg 82%
    12:00 0°C° 0 mm 1 m/s 760 mmHg 80%
    13:00 +1°C° 0 mm 1 m/s 760 mmHg 79%
    14:00 +1°C° 0 mm 1 m/s 760 mmHg 78%
    15:00 -2°C° 0 mm 2 m/s 760 mmHg 82%
    16:00 -3°C° 0 mm 2 m/s 760 mmHg 86%
    17:00 -4°C° 0 mm 2 m/s 760 mmHg 89%
    18:00 -4°C° 0 mm 2 m/s 760 mmHg 90%
    19:00 -4°C° 0 mm 2 m/s 760 mmHg 90%
    20:00 -4°C° 0 mm 2 m/s 760 mmHg 90%
    21:00 -4°C° 0 mm 2 m/s 760 mmHg 89%
    22:00 -3°C° 0 mm 2 m/s 760 mmHg 89%
    23:00 -1°C° 0 mm 1 m/s 761 mmHg 88%

    22 Noiembrie, Joi

    Timp Temperatura Precipitaţii Vânt Presiune Umiditate
    00:00 -1°C° 0 mm 1 m/s 761 mmHg 87%
    01:00 -1°C° 0 mm 1 m/s 761 mmHg 86%
    02:00 -1°C° 0 mm 1 m/s 761 mmHg 84%
    03:00 -2°C° 0 mm 1 m/s 761 mmHg 85%
    04:00 -2°C° 0 mm 1 m/s 761 mmHg 86%
    05:00 -2°C° 0 mm 1 m/s 760 mmHg 86%
    06:00 -2°C° 0 mm 1 m/s 760 mmHg 88%
    07:00 -3°C° 0 mm 1 m/s 760 mmHg 90%
    08:00 -3°C° 0 mm 1 m/s 760 mmHg 92%
    09:00 -2°C° 0 mm 1 m/s 760 mmHg 88%
    10:00 -3°C° 0 mm 2 m/s 760 mmHg 84%
    11:00 -2°C° 0 mm 2 m/s 760 mmHg 80%
    12:00 -2°C° 0 mm 2 m/s 760 mmHg 79%
    13:00 -1°C° 0 mm 2 m/s 760 mmHg 78%
    14:00 -1°C° 0 mm 2 m/s 760 mmHg 77%
    15:00 -2°C° 0 mm 2 m/s 760 mmHg 81%
    16:00 -3°C° 0 mm 2 m/s 759 mmHg 85%
    17:00 -4°C° 0 mm 2 m/s 759 mmHg 89%
    18:00 -4°C° 0 mm 2 m/s 759 mmHg 89%
    19:00 -4°C° 0 mm 2 m/s 759 mmHg 89%
    20:00 -5°C° 0 mm 3 m/s 760 mmHg 89%
    21:00 -5°C° 0 mm 2 m/s 760 mmHg 90%
    22:00 -5°C° 0 mm 2 m/s 760 mmHg 90%
    23:00 -5°C° 0 mm 2 m/s 760 mmHg 91%

    23 Noiembrie, Vineri

    Timp Temperatura Precipitaţii Vânt Presiune Umiditate
    00:00 -5°C° 0 mm 2 m/s 760 mmHg 92%
    01:00 -5°C° 0 mm 2 m/s 760 mmHg 92%
    02:00 -5°C° 0 mm 2 m/s 761 mmHg 93%
    03:00 -5°C° 0 mm 2 m/s 761 mmHg 93%
    04:00 -5°C° 0 mm 2 m/s 761 mmHg 92%
    05:00 -4°C° 0 mm 2 m/s 761 mmHg 91%
    06:00 -4°C° 0 mm 2 m/s 761 mmHg 90%
    07:00 -2°C° 0 mm 1 m/s 762 mmHg 88%
    08:00 -2°C° 0 mm 1 m/s 762 mmHg 87%
    09:00 -1°C° 0 mm 1 m/s 762 mmHg 84%
    10:00 -1°C° 0 mm 1 m/s 763 mmHg 82%
    11:00 -1°C° 0 mm 0 m/s 763 mmHg 79%
    12:00 -1°C° 0 mm 0 m/s 763 mmHg 79%
    13:00 -1°C° 0 mm 0 m/s 763 mmHg 78%
    14:00 0°C° 0 mm 1 m/s 762 mmHg 78%
    15:00 -1°C° 0 mm 1 m/s 762 mmHg 81%
    16:00 -1°C° 0 mm 1 m/s 762 mmHg 84%
    17:00 -2°C° 0 mm 1 m/s 762 mmHg 88%
    18:00 -2°C° 0 mm 1 m/s 762 mmHg 88%
    19:00 -3°C° 0 mm 1 m/s 762 mmHg 89%
    20:00 -3°C° 0 mm 1 m/s 762 mmHg 90%
    21:00 -3°C° 0 mm 1 m/s 762 mmHg 90%
    22:00 -3°C° 0 mm 1 m/s 762 mmHg 90%
    23:00 -6°C° 0 mm 2 m/s 762 mmHg 91%

    24 Noiembrie, Sâmbătă

    Timp Temperatura Precipitaţii Vânt Presiune Umiditate
    00:00 -6°C° 0 mm 2 m/s 761 mmHg 91%
    01:00 -6°C° 0 mm 2 m/s 761 mmHg 91%
    02:00 -6°C° 0 mm 2 m/s 761 mmHg 91%
    03:00 -6°C° 0 mm 2 m/s 760 mmHg 91%
    04:00 -6°C° 0 mm 2 m/s 760 mmHg 91%
    05:00 -6°C° 0 mm 2 m/s 760 mmHg 91%
    06:00 -6°C° 0 mm 2 m/s 760 mmHg 90%
    07:00 -6°C° 0 mm 2 m/s 759 mmHg 89%
    08:00 -6°C° 0 mm 2 m/s 759 mmHg 87%
    09:00 -5°C° 0 mm 2 m/s 759 mmHg 81%
    10:00 -4°C° 0 mm 2 m/s 759 mmHg 75%
    11:00 -3°C° 0 mm 2 m/s 758 mmHg 69%
    12:00 -2°C° 0 mm 2 m/s 758 mmHg 68%
    13:00 -2°C° 0 mm 2 m/s 757 mmHg 68%
    14:00 -1°C° 0 mm 2 m/s 757 mmHg 67%
    15:00 -2°C° 0 mm 2 m/s 756 mmHg 70%
    16:00 -3°C° 0 mm 2 m/s 756 mmHg 72%
    17:00 -4°C° 0 mm 2 m/s 756 mmHg 75%
    18:00 -4°C° 0 mm 2 m/s 756 mmHg 77%
    19:00 -4°C° 0 mm 2 m/s 755 mmHg 78%
    20:00 -4°C° 0 mm 2 m/s 755 mmHg 80%
    21:00 -4°C° 0 mm 2 m/s 755 mmHg 82%
    22:00 -4°C° 0 mm 2 m/s 755 mmHg 84%
    23:00 -4°C° 0 mm 2 m/s 755 mmHg 85%
    Arată mai mult